Time,TemperatureF,DewpointF,PressureIn,WindDirection,WindDirectionDegrees,WindSpeedMPH,WindSpeedGustMPH,Humidity,HourlyPrecipIn,Conditions,Clouds,dailyrainin,SoftwareType,DateUTC
2013-02-10 00:01:00,61.8,59.3,-100.00,NNW,337,4.1,6.2,91,0.00,,,0.00,,2013-02-10 06:01:00,
2013-02-10 00:06:00,61.7,59.0,-100.00,NNW,337,4.5,8.6,90,0.00,,,0.00,,2013-02-10 06:06:00,
2013-02-10 00:11:00,61.8,59.4,-100.00,NW,315,4.3,7.0,91,0.00,,,0.00,,2013-02-10 06:11:00,
2013-02-10 00:16:00,61.8,59.4,-100.00,NW,315,4.7,11.0,91,0.00,,,0.00,,2013-02-10 06:16:00,
2013-02-10 00:21:00,62.0,59.6,-100.00,NNW,337,5.4,11.0,91,0.00,,,0.00,,2013-02-10 06:21:00,
2013-02-10 00:26:00,62.2,59.5,-100.00,NW,315,4.7,7.8,90,0.00,,,0.00,,2013-02-10 06:26:00,
2013-02-10 00:31:00,62.3,59.7,-100.00,NW,315,4.3,8.4,91,0.00,,,0.00,,2013-02-10 06:31:00,
2013-02-10 00:36:00,62.3,59.5,-100.00,NW,315,4.2,6.5,90,0.00,,,0.00,,2013-02-10 06:36:00,
2013-02-10 00:41:00,62.3,59.5,-100.00,NW,315,3.9,7.3,90,0.00,,,0.00,,2013-02-10 06:41:00,
2013-02-10 00:46:00,62.5,59.5,-100.00,NW,315,4.3,8.9,89,0.00,,,0.00,,2013-02-10 06:46:00,
2013-02-10 00:51:00,62.7,59.5,-100.00,NNW,337,4.5,8.9,89,0.00,,,0.00,,2013-02-10 06:51:00,
2013-02-10 00:56:00,62.8,59.7,-100.00,NNW,337,4.7,7.7,89,0.00,,,0.00,,2013-02-10 06:56:00,
2013-02-10 01:01:00,62.7,59.6,-100.00,NNW,337,5.0,7.7,89,0.00,,,0.00,,2013-02-10 07:01:00,
2013-02-10 01:06:00,62.8,59.3,-100.00,NNW,337,4.8,8.0,88,0.00,,,0.00,,2013-02-10 07:06:00,
2013-02-10 01:11:00,62.9,59.4,-100.00,NNW,337,5.1,8.5,87,0.00,,,0.00,,2013-02-10 07:11:00,
2013-02-10 01:16:00,62.9,59.3,-100.00,NNW,337,5.2,8.9,87,0.00,,,0.00,,2013-02-10 07:16:00,
2013-02-10 01:21:00,62.9,59.3,-100.00,NNW,337,5.0,8.9,87,0.00,,,0.00,,2013-02-10 07:21:00,
2013-02-10 01:26:00,62.9,59.5,-100.00,NNW,337,5.0,8.4,88,0.00,,,0.00,,2013-02-10 07:26:00,
2013-02-10 01:31:00,62.9,59.1,-100.00,NNW,337,4.8,8.3,87,0.00,,,0.00,,2013-02-10 07:31:00,
2013-02-10 01:36:00,62.9,59.3,-100.00,NNW,337,4.4,8.3,87,0.00,,,0.00,,2013-02-10 07:36:00,
2013-02-10 01:41:00,63.0,59.4,-100.00,NNW,337,4.5,10.2,87,0.00,,,0.00,,2013-02-10 07:41:00,
2013-02-10 01:46:00,62.9,59.1,-100.00,NNW,337,5.3,7.7,87,0.00,,,0.00,,2013-02-10 07:46:00,
2013-02-10 01:51:00,62.9,59.1,-100.00,NNW,337,5.0,7.7,87,0.00,,,0.00,,2013-02-10 07:51:00,
2013-02-10 01:56:00,62.9,59.2,-100.00,NNW,337,5.2,10.9,87,0.00,,,0.00,,2013-02-10 07:56:00,
2013-02-10 02:01:00,62.9,59.1,-100.00,NNW,337,5.9,10.9,87,0.00,,,0.00,,2013-02-10 08:01:00,
2013-02-10 02:06:00,62.8,59.4,-100.00,North,0,6.1,10.7,88,0.00,,,0.00,,2013-02-10 08:06:00,
2013-02-10 02:11:00,62.7,59.7,-100.00,North,0,6.2,10.7,89,0.00,,,0.00,,2013-02-10 08:11:00,
2013-02-10 02:16:00,62.8,59.1,-100.00,NNW,337,5.8,11.5,87,0.00,,,0.00,,2013-02-10 08:16:00,
2013-02-10 02:21:00,62.8,59.6,-100.00,NNW,337,5.7,9.4,89,0.00,,,0.00,,2013-02-10 08:21:00,
2013-02-10 02:26:00,62.8,59.0,-100.00,NNW,337,5.4,9.4,87,0.00,,,0.00,,2013-02-10 08:26:00,
2013-02-10 02:31:00,62.9,59.0,-100.00,NNW,337,5.5,10.5,86,0.00,,,0.00,,2013-02-10 08:31:00,
2013-02-10 02:36:00,62.9,59.1,-100.00,NNW,337,5.4,10.2,87,0.00,,,0.00,,2013-02-10 08:36:00,
2013-02-10 02:41:00,62.9,59.0,-100.00,NNW,337,5.8,9.5,86,0.00,,,0.00,,2013-02-10 08:41:00,
2013-02-10 02:46:00,62.9,59.0,-100.00,NNW,337,5.3,9.5,86,0.00,,,0.00,,2013-02-10 08:46:00,
2013-02-10 02:51:00,63.0,59.1,-100.00,NNW,337,6.1,10.8,86,0.00,,,0.00,,2013-02-10 08:51:00,
2013-02-10 02:56:00,63.0,59.3,-100.00,NNW,337,6.8,11.4,87,0.00,,,0.00,,2013-02-10 08:56:00,
2013-02-10 03:01:00,62.9,58.7,-100.00,NNW,337,6.2,11.4,85,0.00,,,0.00,,2013-02-10 09:01:00,
2013-02-10 03:06:00,63.0,59.2,-100.00,NNW,337,6.0,10.4,87,0.00,,,0.00,,2013-02-10 09:06:00,
2013-02-10 03:11:00,63.0,59.0,-100.00,NNW,337,6.2,10.4,86,0.00,,,0.00,,2013-02-10 09:11:00,
2013-02-10 03:16:00,63.2,59.1,-100.00,NNW,337,6.1,9.8,86,0.00,,,0.00,,2013-02-10 09:16:00,
2013-02-10 03:21:00,63.0,59.3,-100.00,NNW,337,6.1,9.8,87,0.00,,,0.00,,2013-02-10 09:21:00,
2013-02-10 03:26:00,63.0,59.4,-100.00,NNW,337,6.7,11.2,87,0.00,,,0.00,,2013-02-10 09:26:00,
2013-02-10 03:31:00,62.9,59.1,-100.00,NNW,337,6.0,11.2,87,0.00,,,0.00,,2013-02-10 09:31:00,
2013-02-10 03:36:00,63.0,59.1,-100.00,NNW,337,5.5,8.8,86,0.00,,,0.00,,2013-02-10 09:36:00,
2013-02-10 03:41:00,63.0,59.3,-100.00,NNW,337,6.6,10.8,87,0.00,,,0.00,,2013-02-10 09:41:00,
2013-02-10 03:46:00,63.0,59.1,-100.00,NNW,337,6.8,10.4,86,0.00,,,0.00,,2013-02-10 09:46:00,
2013-02-10 03:51:00,63.0,58.5,-100.00,NNW,337,6.3,9.9,84,0.00,,,0.00,,2013-02-10 09:51:00,
2013-02-10 03:56:00,63.0,59.4,-100.00,NNW,337,6.0,11.5,87,0.00,,,0.00,,2013-02-10 09:56:00,
2013-02-10 04:01:00,63.0,59.3,-100.00,North,0,5.7,11.5,87,0.00,,,0.00,,2013-02-10 10:01:00,
2013-02-10 04:06:00,63.2,59.2,-100.00,North,0,5.9,11.2,86,0.00,,,0.00,,2013-02-10 10:06:00,
2013-02-10 04:11:00,63.2,59.7,-100.00,North,0,5.8,11.2,88,0.00,,,0.00,,2013-02-10 10:11:00,
2013-02-10 04:16:00,63.0,59.6,-100.00,NNW,337,5.8,11.0,88,0.00,,,0.00,,2013-02-10 10:16:00,
2013-02-10 04:21:00,62.9,58.9,-100.00,North,0,5.9,11.0,86,0.00,,,0.00,,2013-02-10 10:21:00,
2013-02-10 04:26:00,63.0,60.6,-100.00,North,0,6.0,10.7,91,0.00,,,0.00,,2013-02-10 10:26:00,
2013-02-10 04:31:00,63.0,59.7,-100.00,North,0,6.1,10.7,88,0.00,,,0.00,,2013-02-10 10:31:00,
2013-02-10 04:36:00,63.0,59.7,-100.00,NNW,337,5.5,10.6,88,0.00,,,0.00,,2013-02-10 10:36:00,
2013-02-10 04:41:00,63.0,59.6,-100.00,NNW,337,5.6,10.6,88,0.00,,,0.00,,2013-02-10 10:41:00,
2013-02-10 04:46:00,63.0,59.7,-100.00,NNW,337,5.6,10.4,88,0.00,,,0.00,,2013-02-10 10:46:00,
2013-02-10 04:51:00,63.2,59.6,-100.00,North,0,5.6,12.2,88,0.00,,,0.00,,2013-02-10 10:51:00,
2013-02-10 04:56:00,63.2,59.5,-100.00,North,0,5.6,12.2,87,0.00,,,0.00,,2013-02-10 10:56:00,
2013-02-10 05:00:00,63.2,59.8,-100.00,North,0,5.8,10.3,88,0.00,,,0.00,,2013-02-10 11:00:00,
2013-02-10 05:05:00,63.2,59.8,-100.00,North,0,6.1,9.3,88,0.00,,,0.00,,2013-02-10 11:05:00,
2013-02-10 05:10:00,63.2,59.8,-100.00,North,0,6.0,10.6,88,0.00,,,0.00,,2013-02-10 11:10:00,
2013-02-10 05:15:00,63.3,60.0,-100.00,North,0,4.5,10.6,88,0.00,,,0.00,,2013-02-10 11:15:00,
2013-02-10 05:20:00,63.4,60.1,-100.00,North,0,4.1,7.8,88,0.00,,,0.00,,2013-02-10 11:20:00,
2013-02-10 05:25:00,63.4,59.0,-100.00,North,0,4.9,11.1,85,0.00,,,0.00,,2013-02-10 11:25:00,
2013-02-10 05:30:00,63.4,60.0,-100.00,North,0,5.4,11.1,88,0.00,,,0.00,,2013-02-10 11:30:00,
2013-02-10 05:35:00,63.5,60.1,-100.00,North,0,5.6,10.7,88,0.00,,,0.00,,2013-02-10 11:35:00,
2013-02-10 05:40:00,63.5,59.9,-100.00,North,0,5.6,9.6,87,0.00,,,0.00,,2013-02-10 11:40:00,
2013-02-10 05:45:00,63.5,60.1,-100.00,North,0,5.1,9.2,88,0.00,,,0.00,,2013-02-10 11:45:00,
2013-02-10 05:50:00,63.5,59.8,-100.00,North,0,5.2,9.6,87,0.00,,,0.00,,2013-02-10 11:50:00,
2013-02-10 05:55:00,63.6,60.2,-100.00,North,0,5.3,9.6,88,0.00,,,0.00,,2013-02-10 11:55:00,
2013-02-10 06:00:00,63.7,60.4,-100.00,North,0,4.9,8.3,88,0.00,,,0.00,,2013-02-10 12:00:00,
2013-02-10 06:05:00,63.7,60.4,-100.00,North,0,5.3,11.5,88,0.00,,,0.00,,2013-02-10 12:05:00,
2013-02-10 06:10:00,63.7,60.3,-100.00,North,0,5.0,11.5,88,0.00,,,0.00,,2013-02-10 12:10:00,
2013-02-10 06:15:00,63.8,60.4,-100.00,North,0,5.0,9.1,88,0.00,,,0.00,,2013-02-10 12:15:00,
2013-02-10 06:20:00,63.8,60.5,-100.00,North,0,5.7,11.0,88,0.00,,,0.00,,2013-02-10 12:20:00,
2013-02-10 06:25:00,63.8,60.3,-100.00,North,0,4.7,9.0,88,0.00,,,0.00,,2013-02-10 12:25:00,
2013-02-10 06:30:00,63.8,60.5,-100.00,North,0,4.7,9.0,88,0.00,,,0.00,,2013-02-10 12:30:00,
2013-02-10 06:35:00,63.8,59.9,-100.00,North,0,5.1,9.0,86,0.00,,,0.00,,2013-02-10 12:35:00,
2013-02-10 06:40:00,63.8,60.6,-100.00,North,0,5.0,8.9,89,0.00,,,0.00,,2013-02-10 12:40:00,
2013-02-10 06:45:00,64.0,60.6,-100.00,NNE,22,5.6,10.6,88,0.00,,,0.00,,2013-02-10 12:45:00,
2013-02-10 06:50:00,64.1,60.8,-100.00,NNE,22,5.4,10.6,89,0.00,,,0.00,,2013-02-10 12:50:00,
2013-02-10 06:55:00,64.1,60.5,-100.00,North,0,5.5,10.7,87,0.00,,,0.00,,2013-02-10 12:55:00,
2013-02-10 07:00:00,64.1,60.8,-100.00,North,0,5.3,10.7,88,0.00,,,0.00,,2013-02-10 13:00:00,
2013-02-10 07:05:00,64.2,60.8,-100.00,North,0,5.3,9.7,88,0.00,,,0.00,,2013-02-10 13:05:00,
2013-02-10 07:10:00,64.2,60.9,-100.00,North,0,5.7,9.8,88,0.00,,,0.00,,2013-02-10 13:10:00,
2013-02-10 07:15:00,64.1,61.6,-100.00,NNE,22,4.7,9.1,91,0.00,,,0.00,,2013-02-10 13:15:00,
2013-02-10 07:20:00,64.2,61.0,-100.00,North,0,4.4,8.3,89,0.00,,,0.00,,2013-02-10 13:20:00,
2013-02-10 07:25:00,64.3,61.0,-100.00,North,0,5.4,11.4,88,0.00,,,0.00,,2013-02-10 13:25:00,
2013-02-10 07:30:00,64.4,61.1,-100.00,North,0,6.1,11.4,88,0.00,,,0.00,,2013-02-10 13:30:00,
2013-02-10 07:35:00,64.3,61.0,-100.00,North,0,5.5,9.3,88,0.00,,,0.00,,2013-02-10 13:35:00,
2013-02-10 07:40:00,64.3,61.3,-100.00,North,0,5.5,9.5,89,0.00,,,0.00,,2013-02-10 13:40:00,
2013-02-10 07:45:00,64.3,61.1,-100.00,North,0,5.4,9.1,89,0.00,,,0.00,,2013-02-10 13:45:00,
2013-02-10 07:50:00,64.4,61.5,-100.00,North,0,4.9,9.1,90,0.00,,,0.00,,2013-02-10 13:50:00,
2013-02-10 07:56:00,64.3,61.5,-100.00,North,0,4.8,9.0,90,0.00,,,0.00,,2013-02-10 13:56:00,
2013-02-10 08:01:00,64.3,61.3,-100.00,North,0,5.9,11.6,89,0.00,,,0.00,,2013-02-10 14:01:00,
2013-02-10 08:06:00,64.3,61.4,-100.00,North,0,5.0,10.2,90,0.00,,,0.00,,2013-02-10 14:06:00,
2013-02-10 08:11:00,64.4,61.4,-100.00,North,0,5.1,9.6,89,0.00,,,0.00,,2013-02-10 14:11:00,
2013-02-10 08:16:00,64.4,60.9,-100.00,North,0,5.7,11.6,88,0.00,,,0.00,,2013-02-10 14:16:00,
2013-02-10 08:21:00,64.5,62.0,-100.00,North,0,5.3,11.6,91,0.00,,,0.00,,2013-02-10 14:21:00,
2013-02-10 08:26:00,64.7,62.0,-100.00,North,0,4.6,8.3,90,0.00,,,0.00,,2013-02-10 14:26:00,
2013-02-10 08:31:00,64.7,61.2,-100.00,North,0,4.7,9.1,88,0.00,,,0.00,,2013-02-10 14:31:00,
2013-02-10 08:36:00,64.8,62.2,-100.00,North,0,5.5,9.6,90,0.00,,,0.00,,2013-02-10 14:36:00,
2013-02-10 08:41:00,65.3,62.6,-100.00,North,0,5.6,10.0,90,0.00,,,0.00,,2013-02-10 14:41:00,
2013-02-10 08:46:00,65.3,61.3,-100.00,North,0,5.1,10.6,86,0.00,,,0.00,,2013-02-10 14:46:00,
2013-02-10 08:51:00,66.2,62.9,-100.00,North,0,5.7,13.1,88,0.00,,,0.00,,2013-02-10 14:51:00,
2013-02-10 08:56:00,65.9,62.5,-100.00,North,0,6.0,13.1,88,0.00,,,0.00,,2013-02-10 14:56:00,
2013-02-10 09:01:00,65.9,62.3,-100.00,North,0,5.6,10.5,88,0.00,,,0.00,,2013-02-10 15:01:00,
2013-02-10 09:06:00,65.8,62.2,-100.00,North,0,4.6,8.1,88,0.00,,,0.00,,2013-02-10 15:06:00,
2013-02-10 09:11:00,65.3,61.4,-100.00,North,0,5.7,10.3,87,0.00,,,0.00,,2013-02-10 15:11:00,
2013-02-10 09:16:00,65.6,61.6,-100.00,NNE,22,5.8,10.3,86,0.00,,,0.00,,2013-02-10 15:16:00,
2013-02-10 09:21:00,65.4,62.1,-100.00,NNE,22,4.4,7.3,88,0.00,,,0.00,,2013-02-10 15:21:00,
2013-02-10 09:26:00,65.4,62.1,-100.00,NNE,22,4.3,9.4,88,0.00,,,0.00,,2013-02-10 15:26:00,
2013-02-10 09:31:00,65.6,61.8,-100.00,NNE,22,5.4,9.4,87,0.00,,,0.00,,2013-02-10 15:31:00,
2013-02-10 09:36:00,66.3,61.8,-100.00,North,0,5.3,9.3,85,0.00,,,0.00,,2013-02-10 15:36:00,
2013-02-10 09:41:00,66.3,62.2,-100.00,North,0,5.6,10.1,86,0.00,,,0.00,,2013-02-10 15:41:00,
2013-02-10 09:46:00,67.2,62.9,-100.00,North,0,5.5,10.1,85,0.00,,,0.00,,2013-02-10 15:46:00,
2013-02-10 09:51:00,67.2,62.8,-100.00,NNE,22,5.5,10.3,85,0.00,,,0.00,,2013-02-10 15:51:00,
2013-02-10 09:57:00,66.7,62.8,-100.00,NNE,22,6.4,12.1,87,0.00,,,0.00,,2013-02-10 15:57:00,
2013-02-10 10:02:00,67.2,62.6,-100.00,NNE,22,6.2,12.1,84,0.00,,,0.00,,2013-02-10 16:02:00,
2013-02-10 10:07:00,67.0,61.3,-100.00,NNE,22,5.6,11.4,81,0.00,,,0.00,,2013-02-10 16:07:00,
2013-02-10 10:12:00,66.7,61.6,-100.00,NNE,22,6.3,11.0,83,0.00,,,0.00,,2013-02-10 16:12:00,
2013-02-10 10:17:00,66.3,62.2,-100.00,NNE,22,6.8,11.6,86,0.00,,,0.00,,2013-02-10 16:17:00,
2013-02-10 10:22:00,66.1,62.1,-100.00,NNE,22,6.6,13.7,86,0.00,,,0.00,,2013-02-10 16:22:00,
2013-02-10 10:27:00,66.0,62.3,-100.00,North,0,6.3,13.7,87,0.00,,,0.00,,2013-02-10 16:27:00,
2013-02-10 10:32:00,65.9,62.1,-100.00,NNE,22,5.9,10.9,87,0.00,,,0.00,,2013-02-10 16:32:00,
2013-02-10 10:37:00,65.9,62.2,-100.00,NNE,22,5.5,10.1,87,0.00,,,0.00,,2013-02-10 16:37:00,
2013-02-10 10:42:00,65.9,61.5,-100.00,NNE,22,5.3,9.6,85,0.00,,,0.00,,2013-02-10 16:42:00,
2013-02-10 10:47:00,65.9,62.2,-100.00,NNE,22,5.1,9.9,87,0.00,,,0.00,,2013-02-10 16:47:00,
2013-02-10 10:52:00,65.9,62.3,-100.00,NNE,22,5.6,11.3,88,0.00,,,0.00,,2013-02-10 16:52:00,
2013-02-10 10:57:00,66.1,62.4,-100.00,NNE,22,5.5,11.3,87,0.00,,,0.00,,2013-02-10 16:57:00,
2013-02-10 11:02:00,66.2,63.4,-100.00,North,0,5.8,11.7,90,0.00,,,0.00,,2013-02-10 17:02:00,
2013-02-10 11:07:00,66.3,62.7,-100.00,NNE,22,6.0,11.7,87,0.00,,,0.00,,2013-02-10 17:07:00,
2013-02-10 11:12:00,66.4,62.7,-100.00,NNE,22,5.5,12.7,87,0.00,,,0.00,,2013-02-10 17:12:00,
2013-02-10 11:17:00,66.5,62.4,-100.00,NNE,22,5.5,12.7,86,0.00,,,0.00,,2013-02-10 17:17:00,
2013-02-10 11:22:00,66.5,63.2,-100.00,NNE,22,5.3,10.4,88,0.00,,,0.00,,2013-02-10 17:22:00,
2013-02-10 11:27:00,66.4,62.7,-100.00,NNE,22,5.8,10.8,87,0.00,,,0.00,,2013-02-10 17:27:00,
2013-02-10 11:32:00,66.7,63.4,-100.00,NNE,22,6.2,11.2,89,0.00,,,0.00,,2013-02-10 17:32:00,
2013-02-10 11:37:00,66.7,63.6,-100.00,North,0,6.7,12.8,89,0.00,,,0.00,,2013-02-10 17:37:00,
2013-02-10 11:42:00,66.5,62.7,-100.00,North,0,6.0,12.8,87,0.00,,,0.00,,2013-02-10 17:42:00,
2013-02-10 11:47:00,66.5,63.0,-100.00,NNE,22,6.2,12.1,88,0.00,,,0.00,,2013-02-10 17:47:00,
2013-02-10 11:52:00,66.3,62.9,-100.00,NNE,22,5.7,12.1,88,0.00,,,0.00,,2013-02-10 17:52:00,
2013-02-10 11:57:00,66.2,62.8,-100.00,North,0,5.6,10.2,88,0.00,,,0.00,,2013-02-10 17:57:00,
2013-02-10 12:02:00,66.1,62.8,-100.00,North,0,6.0,11.5,89,0.00,,,0.00,,2013-02-10 18:02:00,
2013-02-10 12:08:00,66.2,63.0,-100.00,NNE,22,6.2,12.0,89,0.00,,,0.00,,2013-02-10 18:08:00,
2013-02-10 12:13:00,66.3,62.9,-100.00,NNE,22,4.7,9.3,88,0.00,,,0.00,,2013-02-10 18:13:00,
2013-02-10 12:18:00,66.4,63.1,-100.00,NNE,22,4.9,9.1,88,0.00,,,0.00,,2013-02-10 18:18:00,
2013-02-10 12:23:00,66.4,63.9,-100.00,NNE,22,4.5,9.3,91,0.00,,,0.00,,2013-02-10 18:23:00,
2013-02-10 12:28:00,66.3,63.0,-100.00,NNE,22,4.6,8.2,88,0.00,,,0.00,,2013-02-10 18:28:00,
2013-02-10 12:33:00,66.2,63.1,-100.00,NNE,22,5.2,8.5,89,0.00,,,0.00,,2013-02-10 18:33:00,
2013-02-10 12:38:00,66.3,63.9,-100.00,NNE,22,4.7,8.5,91,0.00,,,0.00,,2013-02-10 18:38:00,
2013-02-10 12:43:00,66.3,63.2,-100.00,NNE,22,4.6,9.2,89,0.00,,,0.00,,2013-02-10 18:43:00,
2013-02-10 12:48:00,66.3,63.6,-100.00,NNE,22,4.6,9.2,90,0.00,,,0.00,,2013-02-10 18:48:00,
2013-02-10 12:53:00,66.5,63.2,-100.00,NNE,22,4.8,9.7,88,0.00,,,0.00,,2013-02-10 18:53:00,
2013-02-10 12:58:00,66.5,62.4,-100.00,NNE,22,5.1,9.7,86,0.00,,,0.00,,2013-02-10 18:58:00,
2013-02-10 13:03:00,66.7,63.6,-100.00,NNE,22,5.1,8.3,89,0.00,,,0.00,,2013-02-10 19:03:00,
2013-02-10 13:08:00,66.5,63.3,-100.00,NNE,22,4.1,7.4,89,0.00,,,0.00,,2013-02-10 19:08:00,
2013-02-10 13:13:00,66.7,63.6,-100.00,NNE,22,4.0,7.4,89,0.00,,,0.00,,2013-02-10 19:13:00,
2013-02-10 13:18:00,66.4,63.4,-100.00,NNE,22,3.9,6.6,89,0.00,,,0.00,,2013-02-10 19:18:00,
2013-02-10 13:23:00,66.3,63.4,-100.00,NE,45,3.3,6.7,90,0.00,,,0.00,,2013-02-10 19:23:00,
2013-02-10 13:28:00,66.1,63.3,-100.00,ENE,67,3.2,6.2,90,0.00,,,0.00,,2013-02-10 19:28:00,
2013-02-10 13:33:00,66.5,63.6,-100.00,NE,45,4.8,9.6,90,0.00,,,0.00,,2013-02-10 19:33:00,
2013-02-10 13:38:00,66.5,63.8,-100.00,NNE,22,6.3,9.6,90,0.00,,,0.00,,2013-02-10 19:38:00,
2013-02-10 13:43:00,66.1,63.4,-100.00,NNE,22,5.6,9.6,90,0.00,,,0.00,,2013-02-10 19:43:00,
2013-02-10 13:49:00,66.1,64.3,-100.00,NNE,22,4.7,8.4,93,0.00,,,0.00,,2013-02-10 19:49:00,
2013-02-10 13:54:00,66.2,63.7,-100.00,NNE,22,4.4,9.2,91,0.00,,,0.00,,2013-02-10 19:54:00,
2013-02-10 13:59:00,66.2,63.8,-100.00,NNE,22,4.1,9.2,91,0.00,,,0.00,,2013-02-10 19:59:00,
2013-02-10 14:04:00,66.7,64.3,-100.00,NE,45,4.1,8.9,92,0.00,,,0.00,,2013-02-10 20:04:00,
2013-02-10 14:09:00,66.9,63.5,-100.00,NNE,22,4.2,8.9,88,0.00,,,0.00,,2013-02-10 20:09:00,
2013-02-10 14:14:00,67.2,65.0,-100.00,NNE,22,4.3,7.5,92,0.00,,,0.00,,2013-02-10 20:14:00,
2013-02-10 14:19:00,67.3,64.4,-100.00,NNE,22,4.7,7.5,90,0.00,,,0.00,,2013-02-10 20:19:00,
2013-02-10 14:24:00,67.2,64.3,-100.00,NNE,22,4.4,10.2,90,0.00,,,0.00,,2013-02-10 20:24:00,
2013-02-10 14:29:00,67.0,64.0,-100.00,NNE,22,4.1,7.8,89,0.00,,,0.00,,2013-02-10 20:29:00,
2013-02-10 14:34:00,67.0,64.5,-100.00,NNE,22,4.5,8.1,91,0.00,,,0.00,,2013-02-10 20:34:00,
2013-02-10 14:39:00,67.2,64.6,-100.00,NNE,22,4.4,8.1,91,0.00,,,0.00,,2013-02-10 20:39:00,
2013-02-10 14:44:00,67.1,64.4,-100.00,NNE,22,4.4,8.0,90,0.00,,,0.00,,2013-02-10 20:44:00,
2013-02-10 14:49:00,67.1,64.4,-100.00,NNE,22,4.8,8.3,90,0.00,,,0.00,,2013-02-10 20:49:00,
2013-02-10 14:54:00,66.9,64.2,-100.00,NNE,22,4.5,8.1,91,0.00,,,0.00,,2013-02-10 20:54:00,
2013-02-10 14:59:00,66.8,64.2,-100.00,NNE,22,3.7,5.9,91,0.00,,,0.00,,2013-02-10 20:59:00,
2013-02-10 15:04:00,66.7,64.3,-100.00,NNE,22,3.7,6.5,92,0.00,,,0.00,,2013-02-10 21:04:00,
2013-02-10 15:09:00,66.8,64.3,-100.00,NNE,22,4.1,7.1,91,0.00,,,0.00,,2013-02-10 21:09:00,
2013-02-10 15:14:00,67.0,64.7,-100.00,NNE,22,4.2,7.4,92,0.00,,,0.00,,2013-02-10 21:14:00,
2013-02-10 15:19:00,66.9,64.6,-100.00,NNE,22,4.0,7.4,92,0.00,,,0.00,,2013-02-10 21:19:00,
2013-02-10 15:24:00,66.9,64.7,-100.00,NNE,22,3.3,5.9,92,0.00,,,0.00,,2013-02-10 21:24:00,
2013-02-10 15:30:00,66.9,64.7,-100.00,NNE,22,3.3,5.9,92,0.00,,,0.00,,2013-02-10 21:30:00,
2013-02-10 15:35:00,66.8,64.6,-100.00,NE,45,3.2,6.7,92,0.00,,,0.00,,2013-02-10 21:35:00,
2013-02-10 15:40:00,67.0,65.7,-100.00,NNE,22,3.8,7.6,95,0.00,,,0.00,,2013-02-10 21:40:00,
2013-02-10 15:45:00,67.2,64.5,-100.00,NNE,22,4.2,7.6,90,0.00,,,0.00,,2013-02-10 21:45:00,
2013-02-10 15:50:00,67.4,65.3,-100.00,NE,45,4.3,7.1,92,0.00,,,0.00,,2013-02-10 21:50:00,
2013-02-10 15:55:00,67.1,64.6,-100.00,NE,45,4.9,8.6,91,0.02,,,0.02,,2013-02-10 21:55:00,
2013-02-10 16:00:00,67.0,64.6,-100.00,NE,45,5.6,8.6,92,0.02,,,0.02,,2013-02-10 22:00:00,
2013-02-10 16:05:00,66.9,65.6,-100.00,NE,45,5.2,8.2,95,0.02,,,0.02,,2013-02-10 22:05:00,
2013-02-10 16:10:00,66.9,64.8,-100.00,NE,45,4.7,7.5,93,0.02,,,0.02,,2013-02-10 22:10:00,
2013-02-10 16:15:00,66.8,65.6,-100.00,NE,45,4.2,7.1,96,0.02,,,0.02,,2013-02-10 22:15:00,
2013-02-10 16:20:00,66.7,65.4,-100.00,NE,45,3.8,8.1,95,0.02,,,0.02,,2013-02-10 22:20:00,
2013-02-10 16:25:00,66.5,65.4,-100.00,NE,45,3.3,6.0,95,0.02,,,0.02,,2013-02-10 22:25:00,
2013-02-10 16:30:00,66.5,65.5,-100.00,NE,45,3.3,5.7,96,0.02,,,0.02,,2013-02-10 22:30:00,
2013-02-10 16:35:00,66.5,65.5,-100.00,NE,45,3.8,6.4,96,0.02,,,0.02,,2013-02-10 22:35:00,
2013-02-10 16:40:00,66.3,65.4,-100.00,NE,45,4.6,8.1,96,0.02,,,0.02,,2013-02-10 22:40:00,
2013-02-10 16:45:00,66.5,64.9,-100.00,NE,45,4.0,8.1,94,0.02,,,0.02,,2013-02-10 22:45:00,
2013-02-10 16:50:00,66.4,65.2,-100.00,NE,45,3.4,8.6,95,0.02,,,0.02,,2013-02-10 22:50:00,
2013-02-10 16:55:00,66.3,65.3,-100.00,ENE,67,4.6,8.6,96,0.00,,,0.02,,2013-02-10 22:55:00,
2013-02-10 17:00:00,66.3,65.4,-100.00,ENE,67,4.3,7.0,96,0.00,,,0.02,,2013-02-10 23:00:00,
2013-02-10 17:05:00,66.5,65.7,-100.00,ENE,67,4.4,7.4,97,0.00,,,0.02,,2013-02-10 23:05:00,
2013-02-10 17:10:00,66.7,66.2,-100.00,ENE,67,5.0,8.4,98,0.00,,,0.02,,2013-02-10 23:10:00,
2013-02-10 17:15:00,66.7,65.9,-100.00,ENE,67,4.6,8.4,97,0.00,,,0.02,,2013-02-10 23:15:00,
2013-02-10 17:20:00,66.5,65.8,-100.00,ENE,67,3.4,6.1,97,0.00,,,0.02,,2013-02-10 23:20:00,
2013-02-10 17:25:00,66.4,65.1,-100.00,ENE,67,3.4,5.6,95,0.00,,,0.02,,2013-02-10 23:25:00,
2013-02-10 17:31:00,66.3,65.5,-100.00,ENE,67,2.7,4.9,97,0.00,,,0.02,,2013-02-10 23:31:00,
2013-02-10 17:36:00,66.2,66.1,-100.00,ENE,67,2.5,4.7,99,0.00,,,0.02,,2013-02-10 23:36:00,
2013-02-10 17:41:00,66.1,65.2,-100.00,ENE,67,2.6,5.9,96,0.00,,,0.02,,2013-02-10 23:41:00,
2013-02-10 17:46:00,66.1,65.4,-100.00,East,90,2.7,5.9,97,0.00,,,0.02,,2013-02-10 23:46:00,
2013-02-10 17:51:00,66.0,65.5,-100.00,ENE,67,2.2,4.0,98,0.00,,,0.02,,2013-02-10 23:51:00,
2013-02-10 17:56:00,66.1,64.8,-100.00,ENE,67,2.4,4.8,95,0.00,,,0.02,,2013-02-10 23:56:00,
2013-02-10 18:01:00,66.0,65.3,-100.00,ENE,67,2.6,5.8,97,0.00,,,0.02,,2013-02-11 00:01:00,
2013-02-10 18:06:00,66.1,65.3,-100.00,ENE,67,2.8,5.8,97,0.00,,,0.02,,2013-02-11 00:06:00,
2013-02-10 18:11:00,66.1,65.5,-100.00,ENE,67,2.9,5.0,97,0.00,,,0.02,,2013-02-11 00:11:00,
2013-02-10 18:16:00,66.1,65.6,-100.00,ENE,67,2.8,4.9,98,0.00,,,0.02,,2013-02-11 00:16:00,
2013-02-10 18:21:00,66.2,65.6,-100.00,ENE,67,2.5,4.7,97,0.00,,,0.02,,2013-02-11 00:21:00,
2013-02-10 18:26:00,66.3,65.0,-100.00,East,90,2.5,4.4,95,0.00,,,0.02,,2013-02-11 00:26:00,
2013-02-10 18:31:00,66.4,65.8,-100.00,East,90,2.6,5.4,97,0.00,,,0.02,,2013-02-11 00:31:00,
2013-02-10 18:36:00,66.4,65.8,-100.00,ESE,112,3.2,7.0,97,0.00,,,0.02,,2013-02-11 00:36:00,
2013-02-10 18:41:00,66.5,66.2,-100.00,ESE,112,3.4,7.0,98,0.00,,,0.02,,2013-02-11 00:41:00,
2013-02-10 18:46:00,66.4,65.2,-100.00,East,90,3.7,5.8,95,0.00,,,0.02,,2013-02-11 00:46:00,
2013-02-10 18:51:00,66.3,65.8,-100.00,ENE,67,4.5,7.8,98,0.00,,,0.02,,2013-02-11 00:51:00,
2013-02-10 18:56:00,66.2,66.2,-100.00,ENE,67,5.0,8.6,100,0.00,,,0.02,,2013-02-11 00:56:00,
2013-02-10 19:01:00,66.2,66.2,-100.00,ENE,67,4.7,8.6,99,0.00,,,0.02,,2013-02-11 01:01:00,
2013-02-10 19:06:00,66.3,66.3,-100.00,ENE,67,4.6,9.5,100,0.00,,,0.02,,2013-02-11 01:06:00,
2013-02-10 19:11:00,66.4,66.1,-100.00,ENE,67,4.1,9.5,98,0.00,,,0.02,,2013-02-11 01:11:00,
2013-02-10 19:16:00,66.4,66.1,-100.00,ENE,67,3.3,5.6,98,0.00,,,0.02,,2013-02-11 01:16:00,
2013-02-10 19:21:00,66.4,66.2,-100.00,NE,45,4.9,10.1,99,0.00,,,0.02,,2013-02-11 01:21:00,
2013-02-10 19:26:00,66.4,65.4,-100.00,ENE,67,5.3,10.1,96,0.00,,,0.02,,2013-02-11 01:26:00,
2013-02-10 19:31:00,66.4,65.9,-100.00,ENE,67,4.5,8.9,98,0.00,,,0.02,,2013-02-11 01:31:00,
2013-02-10 19:36:00,66.3,66.0,-100.00,NE,45,4.6,8.9,98,0.00,,,0.02,,2013-02-11 01:36:00,
2013-02-10 19:41:00,66.3,66.1,-100.00,NE,45,4.4,7.1,99,0.00,,,0.02,,2013-02-11 01:41:00,
2013-02-10 19:46:00,66.5,65.5,-100.00,ENE,67,4.3,8.9,96,0.00,,,0.02,,2013-02-11 01:46:00,
2013-02-10 19:51:00,66.7,66.1,-100.00,ENE,67,4.5,9.5,98,0.00,,,0.02,,2013-02-11 01:51:00,
2013-02-10 19:56:00,66.8,66.8,-100.00,ENE,67,4.2,9.5,100,0.00,,,0.02,,2013-02-11 01:56:00,
2013-02-10 20:01:00,66.9,66.5,-100.00,ENE,67,4.8,9.1,98,0.00,,,0.02,,2013-02-11 02:01:00,
2013-02-10 20:06:00,67.0,66.2,-100.00,NE,45,4.4,8.5,97,0.00,,,0.02,,2013-02-11 02:06:00,
2013-02-10 20:11:00,67.0,66.0,-100.00,NE,45,4.5,7.2,96,0.00,,,0.02,,2013-02-11 02:11:00,
2013-02-10 20:16:00,66.9,66.0,-100.00,ENE,67,4.9,8.4,96,0.00,,,0.02,,2013-02-11 02:16:00,
2013-02-10 20:21:00,66.9,66.7,-100.00,ENE,67,4.6,8.4,99,0.00,,,0.02,,2013-02-11 02:21:00,
2013-02-10 20:26:00,67.0,66.9,-100.00,NE,45,4.5,8.0,99,0.00,,,0.02,,2013-02-11 02:26:00,
2013-02-10 20:31:00,67.0,66.7,-100.00,NE,45,5.3,8.9,99,0.00,,,0.02,,2013-02-11 02:31:00,
2013-02-10 20:36:00,67.1,66.6,-100.00,NE,45,4.9,8.9,98,0.00,,,0.02,,2013-02-11 02:36:00,
2013-02-10 20:41:00,67.0,66.7,-100.00,NE,45,4.4,8.3,98,0.00,,,0.02,,2013-02-11 02:41:00,
2013-02-10 20:46:00,67.0,66.7,-100.00,NE,45,4.6,8.3,98,0.00,,,0.02,,2013-02-11 02:46:00,
2013-02-10 20:51:00,67.1,66.1,-100.00,NE,45,4.9,7.7,96,0.00,,,0.02,,2013-02-11 02:51:00,
2013-02-10 20:56:00,67.1,66.8,-100.00,NE,45,5.0,8.0,98,0.00,,,0.02,,2013-02-11 02:56:00,
2013-02-10 21:01:00,67.0,66.4,-100.00,NE,45,5.1,11.1,98,0.00,,,0.02,,2013-02-11 03:01:00,
2013-02-10 21:03:00,66.9,66.3,-100.00,NE,45,5.3,11.1,98,0.00,,,0.02,,2013-02-11 03:03:00,